Time,TemperatureF,DewpointF,PressureIn,WindDirection,WindDirectionDegrees,WindSpeedMPH,WindSpeedGustMPH,Humidity,HourlyPrecipIn,Conditions,Clouds,dailyrainin,SolarRadiationWatts/m^2,SoftwareType,DateUTC
2013-09-11 00:01:00,77.1,73.3,30.11,East,80,2.0,7.0,88,0.00,,,0.00,0,Wunderground v.1.15,2013-09-11 04:01:00,
2013-09-11 00:02:00,77.1,73.3,30.11,East,80,2.0,7.0,88,0.00,,,0.00,0,Wunderground v.1.15,2013-09-11 04:02:00,
2013-09-11 00:05:00,77.1,73.3,30.11,East,80,2.0,7.0,88,0.00,,,0.00,0,Wunderground v.1.15,2013-09-11 04:05:00,
2013-09-11 00:07:00,77.0,73.2,30.11,East,80,2.0,7.0,88,0.00,,,0.00,0,Wunderground v.1.15,2013-09-11 04:07:00,
2013-09-11 00:12:00,77.0,73.2,30.12,East,80,2.0,3.0,88,0.00,,,0.00,0,Wunderground v.1.15,2013-09-11 04:12:00,
2013-09-11 00:17:00,77.0,73.2,30.12,East,80,2.0,4.0,88,0.00,,,0.00,0,Wunderground v.1.15,2013-09-11 04:17:00,
2013-09-11 00:23:00,76.9,73.1,30.11,East,80,2.0,4.0,88,0.00,,,0.00,0,Wunderground v.1.15,2013-09-11 04:23:00,
2013-09-11 00:26:00,76.9,73.1,30.11,East,80,3.0,4.0,88,0.00,,,0.00,0,Wunderground v.1.15,2013-09-11 04:26:00,
2013-09-11 00:31:00,76.9,73.4,30.10,East,80,3.0,3.0,89,0.00,,,0.00,0,Wunderground v.1.15,2013-09-11 04:31:00,
2013-09-11 00:37:00,76.9,73.4,30.11,East,80,1.0,3.0,89,0.00,,,0.00,0,Wunderground v.1.15,2013-09-11 04:37:00,
2013-09-11 00:42:00,76.8,73.3,30.10,East,80,1.0,2.0,89,0.00,,,0.00,0,Wunderground v.1.15,2013-09-11 04:42:00,
2013-09-11 00:47:00,76.8,73.3,30.10,East,80,1.0,2.0,89,0.00,,,0.00,0,Wunderground v.1.15,2013-09-11 04:47:00,
2013-09-11 00:53:00,76.8,73.3,30.10,East,80,1.0,3.0,89,0.00,,,0.00,0,Wunderground v.1.15,2013-09-11 04:53:00,
2013-09-11 00:58:00,76.8,73.3,30.10,East,80,2.0,3.0,89,0.00,,,0.00,0,Wunderground v.1.15,2013-09-11 04:58:00,
2013-09-11 01:04:00,76.7,73.2,30.10,East,80,1.0,3.0,89,0.00,,,0.00,0,Wunderground v.1.15,2013-09-11 05:04:00,
2013-09-11 01:09:00,76.7,73.2,30.09,East,80,0.0,3.0,89,0.00,,,0.00,0,Wunderground v.1.15,2013-09-11 05:09:00,
2013-09-11 01:14:00,76.7,73.2,30.09,East,80,0.0,2.0,89,0.00,,,0.00,0,Wunderground v.1.15,2013-09-11 05:14:00,
2013-09-11 01:19:00,76.6,73.1,30.09,East,80,1.0,4.0,89,0.00,,,0.00,0,Wunderground v.1.15,2013-09-11 05:19:00,
2013-09-11 01:25:00,76.5,73.3,30.09,East,80,1.0,2.0,90,0.00,,,0.00,0,Wunderground v.1.15,2013-09-11 05:25:00,
2013-09-11 01:30:00,76.5,73.3,30.09,East,80,1.0,1.0,90,0.00,,,0.00,0,Wunderground v.1.15,2013-09-11 05:30:00,
2013-09-11 01:36:00,76.5,73.3,30.09,East,80,1.0,3.0,90,0.00,,,0.00,0,Wunderground v.1.15,2013-09-11 05:36:00,
2013-09-11 01:42:00,76.5,73.3,30.09,East,80,2.0,4.0,90,0.00,,,0.00,0,Wunderground v.1.15,2013-09-11 05:42:00,
2013-09-11 01:47:00,76.5,73.3,30.09,East,80,2.0,4.0,90,0.00,,,0.00,0,Wunderground v.1.15,2013-09-11 05:47:00,
2013-09-11 01:53:00,76.5,73.3,30.09,East,80,1.0,3.0,90,0.00,,,0.00,0,Wunderground v.1.15,2013-09-11 05:53:00,
2013-09-11 01:59:00,76.4,73.6,30.08,East,80,1.0,5.0,91,0.00,,,0.00,0,Wunderground v.1.15,2013-09-11 05:59:00,
2013-09-11 02:04:00,76.4,73.6,30.08,East,80,2.0,5.0,91,0.00,,,0.00,0,Wunderground v.1.15,2013-09-11 06:04:00,
2013-09-11 02:10:00,76.4,73.6,30.08,East,80,2.0,2.0,91,0.00,,,0.00,0,Wunderground v.1.15,2013-09-11 06:10:00,
2013-09-11 02:15:00,76.4,73.6,30.09,East,80,2.0,4.0,91,0.00,,,0.00,0,Wunderground v.1.15,2013-09-11 06:15:00,
2013-09-11 02:20:00,76.4,73.6,30.08,East,80,2.0,2.0,91,0.00,,,0.00,0,Wunderground v.1.15,2013-09-11 06:20:00,
2013-09-11 02:25:00,76.4,73.6,30.08,East,80,3.0,4.0,91,0.00,,,0.00,0,Wunderground v.1.15,2013-09-11 06:25:00,
2013-09-11 02:31:00,76.4,73.6,30.08,East,80,3.0,3.0,91,0.00,,,0.00,0,Wunderground v.1.15,2013-09-11 06:31:00,
2013-09-11 02:36:00,76.4,73.6,30.08,East,80,2.0,4.0,91,0.00,,,0.00,0,Wunderground v.1.15,2013-09-11 06:36:00,
2013-09-11 02:41:00,76.4,73.6,30.08,East,80,2.0,2.0,91,0.00,,,0.00,0,Wunderground v.1.15,2013-09-11 06:41:00,
2013-09-11 02:46:00,76.4,73.9,30.08,East,80,3.0,4.0,92,0.00,,,0.00,0,Wunderground v.1.15,2013-09-11 06:46:00,
2013-09-11 02:52:00,76.4,73.9,30.08,East,80,3.0,3.0,92,0.00,,,0.00,0,Wunderground v.1.15,2013-09-11 06:52:00,
2013-09-11 02:57:00,76.5,74.0,30.08,East,80,2.0,5.0,92,0.00,,,0.00,0,Wunderground v.1.15,2013-09-11 06:57:00,
2013-09-11 03:02:00,76.5,74.0,30.08,East,80,2.0,5.0,92,0.00,,,0.00,0,Wunderground v.1.15,2013-09-11 07:02:00,
2013-09-11 03:08:00,76.5,74.0,30.08,East,79,3.0,5.0,92,0.00,,,0.00,0,Wunderground v.1.15,2013-09-11 07:08:00,
2013-09-11 03:13:00,76.5,74.0,30.08,ENE,71,3.0,5.0,92,0.00,,,0.00,0,Wunderground v.1.15,2013-09-11 07:13:00,
2013-09-11 03:18:00,76.6,74.1,30.07,ENE,65,4.0,5.0,92,0.00,,,0.00,0,Wunderground v.1.15,2013-09-11 07:18:00,
2013-09-11 03:24:00,76.6,74.1,30.07,ENE,63,3.0,4.0,92,0.00,,,0.00,0,Wunderground v.1.15,2013-09-11 07:24:00,
2013-09-11 03:29:00,76.6,74.1,30.07,ENE,62,3.0,4.0,92,0.00,,,0.00,0,Wunderground v.1.15,2013-09-11 07:29:00,
2013-09-11 03:34:00,76.6,74.4,30.06,ENE,59,4.0,6.0,93,0.00,,,0.00,0,Wunderground v.1.15,2013-09-11 07:34:00,
2013-09-11 03:40:00,76.6,74.4,30.06,NE,51,4.0,7.0,93,0.00,,,0.00,0,Wunderground v.1.15,2013-09-11 07:40:00,
2013-09-11 03:45:00,76.7,74.2,30.06,NE,52,5.0,7.0,92,0.00,,,0.00,0,Wunderground v.1.15,2013-09-11 07:45:00,
2013-09-11 03:51:00,76.7,74.5,30.07,NE,50,4.0,4.0,93,0.00,,,0.00,0,Wunderground v.1.15,2013-09-11 07:51:00,
2013-09-11 03:56:00,76.7,74.2,30.07,NE,48,3.0,4.0,92,0.00,,,0.00,0,Wunderground v.1.15,2013-09-11 07:56:00,
2013-09-11 04:01:00,76.7,74.2,30.07,NE,47,3.0,4.0,92,0.00,,,0.00,0,Wunderground v.1.15,2013-09-11 08:01:00,
2013-09-11 04:06:00,76.7,74.2,30.07,NE,47,4.0,6.0,92,0.00,,,0.00,0,Wunderground v.1.15,2013-09-11 08:06:00,
2013-09-11 04:12:00,76.7,74.2,30.07,NE,48,5.0,8.0,92,0.00,,,0.00,0,Wunderground v.1.15,2013-09-11 08:12:00,
2013-09-11 04:17:00,76.7,74.2,30.07,NE,47,5.0,8.0,92,0.00,,,0.00,0,Wunderground v.1.15,2013-09-11 08:17:00,
2013-09-11 04:23:00,76.7,74.2,30.07,NE,46,3.0,6.0,92,0.00,,,0.00,0,Wunderground v.1.15,2013-09-11 08:23:00,
2013-09-11 04:28:00,76.7,74.2,30.07,NE,48,4.0,8.0,92,0.00,,,0.00,0,Wunderground v.1.15,2013-09-11 08:28:00,
2013-09-11 04:34:00,76.7,74.2,30.07,NE,44,6.0,7.0,92,0.00,,,0.00,0,Wunderground v.1.15,2013-09-11 08:34:00,
2013-09-11 04:39:00,76.7,74.2,30.07,NE,46,5.0,7.0,92,0.00,,,0.00,0,Wunderground v.1.15,2013-09-11 08:39:00,
2013-09-11 04:45:00,76.7,74.2,30.07,NE,46,4.0,5.0,92,0.00,,,0.00,0,Wunderground v.1.15,2013-09-11 08:45:00,
2013-09-11 04:51:00,76.6,74.4,30.07,NE,45,3.0,7.0,93,0.00,,,0.00,0,Wunderground v.1.15,2013-09-11 08:51:00,
2013-09-11 04:56:00,76.6,74.4,30.07,NE,45,4.0,7.0,93,0.00,,,0.00,0,Wunderground v.1.15,2013-09-11 08:56:00,
2013-09-11 05:01:00,76.5,74.3,30.06,NE,44,4.0,7.0,93,0.00,,,0.00,0,Wunderground v.1.15,2013-09-11 09:01:00,
2013-09-11 05:07:00,76.4,74.2,30.06,NE,45,5.0,7.0,93,0.00,,,0.00,0,Wunderground v.1.15,2013-09-11 09:07:00,
2013-09-11 05:13:00,76.4,74.2,30.06,NE,47,4.0,5.0,93,0.00,,,0.00,0,Wunderground v.1.15,2013-09-11 09:13:00,
2013-09-11 05:19:00,76.4,74.2,30.07,NE,46,4.0,5.0,93,0.00,,,0.00,0,Wunderground v.1.15,2013-09-11 09:19:00,
2013-09-11 05:24:00,76.4,74.2,30.07,NE,46,4.0,5.0,93,0.00,,,0.00,0,Wunderground v.1.15,2013-09-11 09:24:00,
2013-09-11 05:29:00,76.4,74.2,30.07,NE,46,3.0,6.0,93,0.00,,,0.00,0,Wunderground v.1.15,2013-09-11 09:29:00,
2013-09-11 05:35:00,76.4,74.2,30.08,NE,47,4.0,6.0,93,0.00,,,0.00,0,Wunderground v.1.15,2013-09-11 09:35:00,
2013-09-11 05:40:00,76.4,74.2,30.08,NE,48,4.0,6.0,93,0.00,,,0.00,0,Wunderground v.1.15,2013-09-11 09:40:00,
2013-09-11 05:45:00,76.3,74.1,30.08,NE,50,3.0,6.0,93,0.00,,,0.00,0,Wunderground v.1.15,2013-09-11 09:45:00,
2013-09-11 05:51:00,76.3,74.4,30.08,NE,49,3.0,3.0,94,0.00,,,0.00,0,Wunderground v.1.15,2013-09-11 09:51:00,
2013-09-11 05:56:00,76.3,74.1,30.08,NE,51,3.0,6.0,93,0.00,,,0.00,0,Wunderground v.1.15,2013-09-11 09:56:00,
2013-09-11 06:01:00,76.2,74.0,30.08,NE,52,4.0,9.0,93,0.00,,,0.00,0,Wunderground v.1.15,2013-09-11 10:01:00,
2013-09-11 06:06:00,76.3,74.4,30.09,NE,52,4.0,9.0,94,0.00,,,0.00,0,Wunderground v.1.15,2013-09-11 10:06:00,
2013-09-11 06:12:00,76.2,74.3,30.08,ENE,59,4.0,5.0,94,0.00,,,0.00,0,Wunderground v.1.15,2013-09-11 10:12:00,
2013-09-11 06:18:00,76.2,74.3,30.09,ENE,59,4.0,5.0,94,0.00,,,0.00,0,Wunderground v.1.15,2013-09-11 10:18:00,
2013-09-11 06:23:00,76.1,74.2,30.09,ENE,59,4.0,6.0,94,0.00,,,0.00,0,Wunderground v.1.15,2013-09-11 10:23:00,
2013-09-11 06:28:00,76.1,74.2,30.09,NE,52,4.0,6.0,94,0.00,,,0.00,0,Wunderground v.1.15,2013-09-11 10:28:00,
2013-09-11 06:33:00,76.2,74.3,30.08,NE,53,4.0,5.0,94,0.00,,,0.00,0,Wunderground v.1.15,2013-09-11 10:33:00,
2013-09-11 06:39:00,76.1,74.2,30.08,NE,52,4.0,7.0,94,0.00,,,0.00,0,Wunderground v.1.15,2013-09-11 10:39:00,
2013-09-11 06:44:00,76.1,74.2,30.08,NE,50,4.0,5.0,94,0.00,,,0.00,0,Wunderground v.1.15,2013-09-11 10:44:00,
2013-09-11 06:49:00,76.0,74.1,30.09,NE,50,4.0,7.0,94,0.00,,,0.00,0,Wunderground v.1.15,2013-09-11 10:49:00,
2013-09-11 06:55:00,76.0,74.1,30.09,NE,48,3.0,5.0,94,0.00,,,0.00,0,Wunderground v.1.15,2013-09-11 10:55:00,
2013-09-11 07:00:00,76.0,73.8,30.08,NE,50,3.0,6.0,93,0.00,,,0.00,0,Wunderground v.1.15,2013-09-11 11:00:00,
2013-09-11 07:05:00,75.9,73.7,30.09,NE,50,3.0,9.0,93,0.00,,,0.00,0,Wunderground v.1.15,2013-09-11 11:05:00,
2013-09-11 07:11:00,75.9,73.7,30.09,NE,50,3.0,3.0,93,0.00,,,0.00,5,Wunderground v.1.15,2013-09-11 11:11:00,
2013-09-11 07:16:00,75.9,73.7,30.09,NE,50,4.0,5.0,93,0.00,,,0.00,7,Wunderground v.1.15,2013-09-11 11:16:00,
2013-09-11 07:21:00,75.8,73.6,30.09,NE,50,3.0,6.0,93,0.00,,,0.00,11,Wunderground v.1.15,2013-09-11 11:21:00,
2013-09-11 07:26:00,75.8,73.6,30.09,NE,50,3.0,6.0,93,0.00,,,0.00,18,Wunderground v.1.15,2013-09-11 11:26:00,
2013-09-11 07:32:00,75.8,73.6,30.09,NE,50,2.0,3.0,93,0.00,,,0.00,23,Wunderground v.1.15,2013-09-11 11:32:00,
2013-09-11 07:37:00,75.9,73.7,30.09,NE,50,2.0,3.0,93,0.00,,,0.00,28,Wunderground v.1.15,2013-09-11 11:37:00,
2013-09-11 07:42:00,76.0,73.8,30.09,NE,44,3.0,6.0,93,0.00,,,0.00,33,Wunderground v.1.15,2013-09-11 11:42:00,
2013-09-11 07:48:00,76.2,74.0,30.09,NE,48,6.0,8.0,93,0.00,,,0.00,86,Wunderground v.1.15,2013-09-11 11:48:00,
2013-09-11 07:53:00,76.6,74.4,30.09,NE,50,5.0,6.0,93,0.00,,,0.00,111,Wunderground v.1.15,2013-09-11 11:53:00,
2013-09-11 07:59:00,77.1,74.6,30.09,NE,47,5.0,6.0,92,0.00,,,0.00,134,Wunderground v.1.15,2013-09-11 11:59:00,
2013-09-11 08:05:00,77.7,74.9,30.10,NE,50,4.0,8.0,91,0.00,,,0.00,155,Wunderground v.1.15,2013-09-11 12:05:00,
2013-09-11 08:10:00,78.1,74.9,30.09,NE,54,4.0,7.0,90,0.00,,,0.00,169,Wunderground v.1.15,2013-09-11 12:10:00,
2013-09-11 08:15:00,78.6,75.1,30.10,NE,54,5.0,7.0,89,0.00,,,0.00,149,Wunderground v.1.15,2013-09-11 12:15:00,
2013-09-11 08:20:00,79.0,74.8,30.10,ENE,62,5.0,5.0,87,0.00,,,0.00,176,Wunderground v.1.15,2013-09-11 12:20:00,
2013-09-11 08:27:00,79.6,75.0,30.11,ENE,69,5.0,6.0,86,0.00,,,0.00,169,Wunderground v.1.15,2013-09-11 12:27:00,
2013-09-11 08:32:00,80.0,75.4,30.11,ENE,75,4.0,7.0,86,0.00,,,0.00,216,Wunderground v.1.15,2013-09-11 12:32:00,
2013-09-11 08:37:00,80.2,75.3,30.11,ENE,65,5.0,9.0,85,0.00,,,0.00,156,Wunderground v.1.15,2013-09-11 12:37:00,
2013-09-11 08:42:00,80.4,75.1,30.11,ENE,71,6.0,8.0,84,0.00,,,0.00,237,Wunderground v.1.15,2013-09-11 12:42:00,
2013-09-11 08:48:00,80.7,75.4,30.12,East,84,6.0,8.0,84,0.00,,,0.00,274,Wunderground v.1.15,2013-09-11 12:48:00,
2013-09-11 08:53:00,81.2,75.5,30.12,East,88,5.0,7.0,83,0.00,,,0.00,294,Wunderground v.1.15,2013-09-11 12:53:00,
2013-09-11 08:58:00,81.5,75.8,30.12,ENE,69,5.0,9.0,83,0.00,,,0.00,313,Wunderground v.1.15,2013-09-11 12:58:00,
2013-09-11 09:03:00,81.7,75.7,30.12,ENE,78,6.0,11.0,82,0.00,,,0.00,330,Wunderground v.1.15,2013-09-11 13:03:00,
2013-09-11 09:09:00,81.8,75.4,30.12,ENE,75,6.0,11.0,81,0.00,,,0.00,355,Wunderground v.1.15,2013-09-11 13:09:00,
2013-09-11 09:14:00,82.1,75.7,30.12,ENE,71,6.0,12.0,81,0.00,,,0.00,373,Wunderground v.1.15,2013-09-11 13:14:00,
2013-09-11 09:19:00,82.2,75.4,30.11,East,94,8.0,12.0,80,0.00,,,0.00,392,Wunderground v.1.15,2013-09-11 13:19:00,
2013-09-11 09:25:00,82.4,75.2,30.12,East,92,8.0,12.0,79,0.00,,,0.00,411,Wunderground v.1.15,2013-09-11 13:25:00,
2013-09-11 09:30:00,82.8,75.6,30.11,East,86,6.0,6.0,79,0.00,,,0.00,429,Wunderground v.1.15,2013-09-11 13:30:00,
2013-09-11 09:35:00,83.0,75.4,30.11,East,82,6.0,11.0,78,0.00,,,0.00,454,Wunderground v.1.15,2013-09-11 13:35:00,
2013-09-11 09:40:00,83.3,75.7,30.12,ENE,74,7.0,11.0,78,0.00,,,0.00,469,Wunderground v.1.15,2013-09-11 13:40:00,
2013-09-11 09:46:00,83.6,75.2,30.12,East,101,9.0,12.0,76,0.00,,,0.00,485,Wunderground v.1.15,2013-09-11 13:46:00,
2013-09-11 09:51:00,83.9,75.5,30.11,ENE,73,8.0,14.0,76,0.00,,,0.00,501,Wunderground v.1.15,2013-09-11 13:51:00,
2013-09-11 09:56:00,84.0,74.8,30.11,East,97,9.0,14.0,74,0.00,,,0.00,524,Wunderground v.1.15,2013-09-11 13:56:00,
2013-09-11 10:02:00,84.1,75.3,30.11,East,88,10.0,11.0,75,0.00,,,0.00,545,Wunderground v.1.15,2013-09-11 14:02:00,
2013-09-11 10:07:00,84.4,75.2,30.11,ESE,102,8.0,11.0,74,0.00,,,0.00,566,Wunderground v.1.15,2013-09-11 14:07:00,
2013-09-11 10:12:00,84.7,75.1,30.11,East,92,7.0,7.0,73,0.00,,,0.00,601,Wunderground v.1.15,2013-09-11 14:12:00,
2013-09-11 10:18:00,85.1,75.5,30.12,East,88,7.0,10.0,73,0.00,,,0.00,605,Wunderground v.1.15,2013-09-11 14:18:00,
2013-09-11 10:23:00,85.2,74.3,30.12,ENE,74,9.0,14.0,70,0.00,,,0.00,647,Wunderground v.1.15,2013-09-11 14:23:00,
2013-09-11 10:28:00,85.3,74.8,30.12,ENE,69,9.0,14.0,71,0.00,,,0.00,636,Wunderground v.1.15,2013-09-11 14:28:00,
2013-09-11 10:33:00,85.7,75.6,30.12,ENE,67,7.0,10.0,72,0.00,,,0.00,694,Wunderground v.1.15,2013-09-11 14:33:00,
2013-09-11 10:39:00,86.1,75.6,30.12,East,96,8.0,12.0,71,0.00,,,0.00,689,Wunderground v.1.15,2013-09-11 14:39:00,
2013-09-11 10:44:00,86.1,74.3,30.12,ESE,110,8.0,9.0,68,0.00,,,0.00,724,Wunderground v.1.15,2013-09-11 14:44:00,
2013-09-11 10:49:00,86.3,74.0,30.11,East,97,7.0,11.0,67,0.00,,,0.00,731,Wunderground v.1.15,2013-09-11 14:49:00,
2013-09-11 10:55:00,86.3,74.5,30.11,East,86,6.0,11.0,68,0.00,,,0.00,735,Wunderground v.1.15,2013-09-11 14:55:00,
2013-09-11 11:00:00,86.4,73.7,30.11,ENE,63,7.0,12.0,66,0.00,,,0.00,721,Wunderground v.1.15,2013-09-11 15:00:00,
2013-09-11 11:05:00,86.7,74.0,30.11,ENE,60,8.0,17.0,66,0.00,,,0.00,724,Wunderground v.1.15,2013-09-11 15:05:00,
2013-09-11 11:11:00,87.0,73.3,30.11,NE,55,8.0,12.0,64,0.00,,,0.00,717,Wunderground v.1.15,2013-09-11 15:11:00,
2013-09-11 11:16:00,87.3,73.2,30.11,NE,36,8.0,12.0,63,0.00,,,0.00,712,Wunderground v.1.15,2013-09-11 15:16:00,
2013-09-11 11:21:00,87.3,72.7,30.11,ENE,63,8.0,9.0,62,0.00,,,0.00,670,Wunderground v.1.15,2013-09-11 15:21:00,
2013-09-11 11:26:00,87.4,73.3,30.10,ENE,64,7.0,9.0,63,0.00,,,0.00,601,Wunderground v.1.15,2013-09-11 15:26:00,
2013-09-11 11:32:00,87.4,72.8,30.10,ENE,77,7.0,10.0,62,0.00,,,0.00,700,Wunderground v.1.15,2013-09-11 15:32:00,
2013-09-11 11:37:00,87.3,70.7,30.11,ESE,105,8.0,10.0,58,0.00,,,0.00,758,Wunderground v.1.15,2013-09-11 15:37:00,
2013-09-11 11:43:00,87.5,70.4,30.11,ENE,73,8.0,12.0,57,0.00,,,0.00,803,Wunderground v.1.15,2013-09-11 15:43:00,
2013-09-11 11:48:00,87.7,71.1,30.11,East,84,7.0,12.0,58,0.00,,,0.00,810,Wunderground v.1.15,2013-09-11 15:48:00,
2013-09-11 11:53:00,88.1,72.0,30.11,East,95,6.0,7.0,59,0.00,,,0.00,840,Wunderground v.1.15,2013-09-11 15:53:00,
2013-09-11 11:59:00,88.3,73.1,30.11,ESE,112,8.0,15.0,61,0.00,,,0.00,896,Wunderground v.1.15,2013-09-11 15:59:00,
2013-09-11 12:04:00,88.3,72.2,30.11,East,92,9.0,10.0,59,0.00,,,0.00,991,Wunderground v.1.15,2013-09-11 16:04:00,
2013-09-11 12:09:00,88.2,72.6,30.11,ESE,106,9.0,13.0,60,0.00,,,0.00,1056,Wunderground v.1.15,2013-09-11 16:09:00,
2013-09-11 12:15:00,88.4,73.2,30.10,East,87,9.0,14.0,61,0.00,,,0.00,1037,Wunderground v.1.15,2013-09-11 16:15:00,
2013-09-11 12:20:00,88.6,73.9,30.11,East,84,8.0,9.0,62,0.00,,,0.00,221,Wunderground v.1.15,2013-09-11 16:20:00,
2013-09-11 12:25:00,87.9,73.3,30.11,ENE,67,9.0,16.0,62,0.00,,,0.00,227,Wunderground v.1.15,2013-09-11 16:25:00,
2013-09-11 12:31:00,87.8,74.1,30.11,East,88,9.0,10.0,64,0.00,,,0.00,967,Wunderground v.1.15,2013-09-11 16:31:00,
2013-09-11 12:36:00,88.2,74.0,30.10,East,82,8.0,14.0,63,0.00,,,0.00,1018,Wunderground v.1.15,2013-09-11 16:36:00,
2013-09-11 12:41:00,88.3,73.1,30.11,East,90,8.0,8.0,61,0.00,,,0.00,225,Wunderground v.1.15,2013-09-11 16:41:00,
2013-09-11 12:46:00,87.8,73.6,30.11,ESE,109,7.0,8.0,63,0.00,,,0.00,216,Wunderground v.1.15,2013-09-11 16:46:00,
2013-09-11 12:52:00,87.3,74.5,30.10,East,86,7.0,7.0,66,0.00,,,0.00,879,Wunderground v.1.15,2013-09-11 16:52:00,
2013-09-11 12:57:00,87.5,75.2,30.10,East,80,8.0,13.0,67,0.00,,,0.00,515,Wunderground v.1.15,2013-09-11 16:57:00,
2013-09-11 13:02:00,87.8,75.5,30.10,East,85,8.0,12.0,67,0.00,,,0.00,907,Wunderground v.1.15,2013-09-11 17:02:00,
2013-09-11 13:08:00,87.9,74.7,30.10,NE,53,9.0,16.0,65,0.00,,,0.00,888,Wunderground v.1.15,2013-09-11 17:08:00,
2013-09-11 13:13:00,88.0,74.8,30.09,East,93,8.0,12.0,65,0.00,,,0.00,893,Wunderground v.1.15,2013-09-11 17:13:00,
2013-09-11 13:18:00,88.3,75.5,30.09,East,101,7.0,12.0,66,0.00,,,0.00,874,Wunderground v.1.15,2013-09-11 17:18:00,
2013-09-11 13:24:00,88.3,73.1,30.09,ESE,115,8.0,11.0,61,0.00,,,0.00,942,Wunderground v.1.15,2013-09-11 17:24:00,
2013-09-11 13:30:00,88.5,73.8,30.09,ESE,104,7.0,7.0,62,0.00,,,0.00,853,Wunderground v.1.15,2013-09-11 17:30:00,
2013-09-11 13:35:00,88.8,73.6,30.09,ESE,106,6.0,9.0,61,0.00,,,0.00,1023,Wunderground v.1.15,2013-09-11 17:35:00,
2013-09-11 13:40:00,88.8,74.1,30.09,ESE,113,6.0,6.0,62,0.00,,,0.00,1046,Wunderground v.1.15,2013-09-11 17:40:00,
2013-09-11 13:46:00,88.8,74.1,30.08,ESE,102,7.0,11.0,62,0.00,,,0.00,410,Wunderground v.1.15,2013-09-11 17:46:00,
2013-09-11 13:51:00,89.1,75.3,30.08,ESE,102,7.0,11.0,64,0.00,,,0.00,976,Wunderground v.1.15,2013-09-11 17:51:00,
2013-09-11 13:56:00,89.4,73.7,30.08,East,84,6.0,11.0,60,0.00,,,0.00,225,Wunderground v.1.15,2013-09-11 17:56:00,
2013-09-11 14:02:00,89.4,74.2,30.08,ESE,115,6.0,20.0,61,0.00,,,0.00,991,Wunderground v.1.15,2013-09-11 18:02:00,
2013-09-11 14:08:00,89.6,72.9,30.08,ESE,121,7.0,20.0,58,0.00,,,0.00,1028,Wunderground v.1.15,2013-09-11 18:08:00,
2013-09-11 14:14:00,89.8,74.1,30.07,East,92,8.0,14.0,60,0.00,,,0.00,1055,Wunderground v.1.15,2013-09-11 18:14:00,
2013-09-11 14:19:00,89.7,73.5,30.07,East,96,9.0,14.0,59,0.00,,,0.00,1018,Wunderground v.1.15,2013-09-11 18:19:00,
2013-09-11 14:24:00,89.9,73.1,30.07,ENE,69,8.0,9.0,58,0.00,,,0.00,958,Wunderground v.1.15,2013-09-11 18:24:00,
2013-09-11 14:30:00,90.0,74.2,30.06,East,92,8.0,10.0,60,0.00,,,0.00,923,Wunderground v.1.15,2013-09-11 18:30:00,
2013-09-11 14:35:00,90.2,73.4,30.06,ENE,64,7.0,10.0,58,0.00,,,0.00,976,Wunderground v.1.15,2013-09-11 18:35:00,
2013-09-11 14:40:00,90.4,74.1,30.06,ENE,68,6.0,6.0,59,0.00,,,0.00,990,Wunderground v.1.15,2013-09-11 18:40:00,
2013-09-11 14:46:00,90.1,73.3,30.06,East,92,8.0,9.0,58,0.00,,,0.00,206,Wunderground v.1.15,2013-09-11 18:46:00,
2013-09-11 14:51:00,89.4,73.7,30.06,SE,128,7.0,8.0,60,0.00,,,0.00,988,Wunderground v.1.15,2013-09-11 18:51:00,
2013-09-11 14:56:00,89.6,73.9,30.05,East,96,6.0,12.0,60,0.00,,,0.00,585,Wunderground v.1.15,2013-09-11 18:56:00,
2013-09-11 15:01:00,90.1,74.8,30.05,East,96,6.0,17.0,61,0.00,,,0.00,1083,Wunderground v.1.15,2013-09-11 19:01:00,
2013-09-11 15:07:00,89.9,75.1,30.05,East,82,8.0,17.0,62,0.00,,,0.00,225,Wunderground v.1.15,2013-09-11 19:07:00,
2013-09-11 15:12:00,89.4,73.7,30.05,East,98,9.0,15.0,60,0.00,,,0.00,169,Wunderground v.1.15,2013-09-11 19:12:00,
2013-09-11 15:17:00,89.3,73.6,30.05,East,79,8.0,15.0,60,0.00,,,0.00,925,Wunderground v.1.15,2013-09-11 19:17:00,
2013-09-11 15:23:00,89.6,74.4,30.05,ENE,71,8.0,10.0,61,0.00,,,0.00,250,Wunderground v.1.15,2013-09-11 19:23:00,
2013-09-11 15:28:00,89.0,74.3,30.04,East,92,9.0,13.0,62,0.00,,,0.00,188,Wunderground v.1.15,2013-09-11 19:28:00,
2013-09-11 15:33:00,88.9,74.7,30.04,East,82,8.0,9.0,63,0.00,,,0.00,819,Wunderground v.1.15,2013-09-11 19:33:00,
2013-09-11 15:39:00,89.4,74.7,30.04,East,81,8.0,12.0,62,0.00,,,0.00,847,Wunderground v.1.15,2013-09-11 19:39:00,
2013-09-11 15:44:00,89.6,75.3,30.04,ENE,71,9.0,12.0,63,0.00,,,0.00,181,Wunderground v.1.15,2013-09-11 19:44:00,
2013-09-11 15:49:00,89.2,75.0,30.03,NE,50,8.0,12.0,63,0.00,,,0.00,160,Wunderground v.1.15,2013-09-11 19:49:00,
2013-09-11 15:54:00,89.2,75.0,30.04,NE,47,7.0,8.0,63,0.00,,,0.00,819,Wunderground v.1.15,2013-09-11 19:54:00,
2013-09-11 16:00:00,89.7,75.4,30.03,ENE,69,8.0,10.0,63,0.00,,,0.00,853,Wunderground v.1.15,2013-09-11 20:00:00,
2013-09-11 16:05:00,89.5,74.3,30.03,ENE,70,8.0,18.0,61,0.00,,,0.00,160,Wunderground v.1.15,2013-09-11 20:05:00,
2013-09-11 16:10:00,89.5,74.3,30.04,East,82,7.0,7.0,61,0.00,,,0.00,756,Wunderground v.1.15,2013-09-11 20:10:00,
2013-09-11 16:16:00,89.7,74.5,30.04,NE,54,7.0,17.0,61,0.00,,,0.00,712,Wunderground v.1.15,2013-09-11 20:16:00,
2013-09-11 16:21:00,89.8,75.0,30.04,ENE,61,9.0,16.0,62,0.00,,,0.00,763,Wunderground v.1.15,2013-09-11 20:21:00,
2013-09-11 16:26:00,89.7,74.5,30.04,NE,52,9.0,16.0,61,0.00,,,0.00,236,Wunderground v.1.15,2013-09-11 20:26:00,
2013-09-11 16:31:00,89.6,74.4,30.04,ENE,77,9.0,10.0,61,0.00,,,0.00,643,Wunderground v.1.15,2013-09-11 20:31:00,
2013-09-11 16:37:00,89.6,74.4,30.04,NE,55,8.0,11.0,61,0.00,,,0.00,643,Wunderground v.1.15,2013-09-11 20:37:00,
2013-09-11 16:42:00,89.7,74.0,30.04,ENE,75,8.0,15.0,60,0.00,,,0.00,628,Wunderground v.1.15,2013-09-11 20:42:00,
2013-09-11 16:47:00,89.8,74.1,30.03,ENE,62,8.0,15.0,60,0.00,,,0.00,589,Wunderground v.1.15,2013-09-11 20:47:00,
2013-09-11 16:53:00,89.8,74.6,30.03,ENE,68,8.0,11.0,61,0.00,,,0.00,563,Wunderground v.1.15,2013-09-11 20:53:00,
2013-09-11 16:58:00,89.8,74.1,30.03,NE,48,8.0,15.0,60,0.00,,,0.00,554,Wunderground v.1.15,2013-09-11 20:58:00,
2013-09-11 17:03:00,89.7,74.0,30.03,NE,54,8.0,19.0,60,0.00,,,0.00,541,Wunderground v.1.15,2013-09-11 21:03:00,
2013-09-11 17:09:00,89.5,74.3,30.03,East,79,8.0,19.0,61,0.00,,,0.00,557,Wunderground v.1.15,2013-09-11 21:09:00,
2013-09-11 17:15:00,89.2,74.0,30.04,ENE,67,8.0,13.0,61,0.00,,,0.00,179,Wunderground v.1.15,2013-09-11 21:15:00,
2013-09-11 17:20:00,88.8,73.6,30.04,ENE,68,8.0,8.0,61,0.00,,,0.00,536,Wunderground v.1.15,2013-09-11 21:20:00,
2013-09-11 17:26:00,88.8,74.6,30.04,ENE,69,8.0,10.0,63,0.00,,,0.00,526,Wunderground v.1.15,2013-09-11 21:26:00,
2013-09-11 17:31:00,88.5,73.8,30.04,East,90,8.0,8.0,62,0.00,,,0.00,102,Wunderground v.1.15,2013-09-11 21:31:00,
2013-09-11 17:36:00,87.6,73.4,30.04,East,94,8.0,9.0,63,0.00,,,0.00,86,Wunderground v.1.15,2013-09-11 21:36:00,
2013-09-11 17:41:00,87.0,74.3,30.04,ESE,107,7.0,7.0,66,0.00,,,0.00,236,Wunderground v.1.15,2013-09-11 21:41:00,
2013-09-11 17:47:00,86.9,73.7,30.04,East,82,5.0,8.0,65,0.00,,,0.00,394,Wunderground v.1.15,2013-09-11 21:47:00,
2013-09-11 17:52:00,86.9,72.8,30.05,East,79,7.0,9.0,63,0.00,,,0.00,54,Wunderground v.1.15,2013-09-11 21:52:00,
2013-09-11 17:57:00,86.5,72.9,30.04,ENE,58,7.0,10.0,64,0.00,,,0.00,88,Wunderground v.1.15,2013-09-11 21:57:00,
2013-09-11 18:02:00,86.4,72.8,30.04,ENE,57,6.0,17.0,64,0.00,,,0.00,306,Wunderground v.1.15,2013-09-11 22:02:00,
2013-09-11 18:08:00,86.7,71.6,30.04,ENE,65,7.0,17.0,61,0.00,,,0.00,281,Wunderground v.1.15,2013-09-11 22:08:00,
2013-09-11 18:13:00,86.9,72.3,30.05,East,80,8.0,9.0,62,0.00,,,0.00,264,Wunderground v.1.15,2013-09-11 22:13:00,
2013-09-11 18:18:00,87.1,72.5,30.05,ESE,106,7.0,9.0,62,0.00,,,0.00,241,Wunderground v.1.15,2013-09-11 22:18:00,
2013-09-11 18:24:00,87.1,72.5,30.05,East,84,6.0,10.0,62,0.00,,,0.00,223,Wunderground v.1.15,2013-09-11 22:24:00,
2013-09-11 18:29:00,86.9,72.3,30.04,ENE,69,7.0,10.0,62,0.00,,,0.00,202,Wunderground v.1.15,2013-09-11 22:29:00,
2013-09-11 18:34:00,86.8,72.7,30.05,East,97,7.0,9.0,63,0.00,,,0.00,179,Wunderground v.1.15,2013-09-11 22:34:00,
2013-09-11 18:40:00,86.6,72.5,30.04,ENE,72,7.0,7.0,63,0.00,,,0.00,155,Wunderground v.1.15,2013-09-11 22:40:00,
2013-09-11 18:45:00,86.5,72.4,30.04,East,83,7.0,10.0,63,0.00,,,0.00,134,Wunderground v.1.15,2013-09-11 22:45:00,
2013-09-11 18:50:00,86.4,72.3,30.04,ENE,75,6.0,6.0,63,0.00,,,0.00,111,Wunderground v.1.15,2013-09-11 22:50:00,
2013-09-11 18:55:00,86.3,73.1,30.04,ENE,77,6.0,11.0,65,0.00,,,0.00,88,Wunderground v.1.15,2013-09-11 22:55:00,
2013-09-11 19:01:00,85.9,73.7,30.04,ENE,63,7.0,12.0,67,0.00,,,0.00,56,Wunderground v.1.15,2013-09-11 23:01:00,
2013-09-11 19:06:00,85.4,73.6,30.04,ENE,74,7.0,12.0,68,0.00,,,0.00,47,Wunderground v.1.15,2013-09-11 23:06:00,
2013-09-11 19:11:00,85.0,73.7,30.04,East,87,7.0,9.0,69,0.00,,,0.00,16,Wunderground v.1.15,2013-09-11 23:11:00,
2013-09-11 19:17:00,84.6,73.7,30.04,ENE,71,5.0,12.0,70,0.00,,,0.00,12,Wunderground v.1.15,2013-09-11 23:17:00,
2013-09-11 19:23:00,84.2,73.8,30.04,ENE,71,6.0,7.0,71,0.00,,,0.00,9,Wunderground v.1.15,2013-09-11 23:23:00,
2013-09-11 19:28:00,83.9,73.9,30.05,ENE,76,6.0,9.0,72,0.00,,,0.00,5,Wunderground v.1.15,2013-09-11 23:28:00,
2013-09-11 19:33:00,83.6,73.6,30.05,East,79,6.0,10.0,72,0.00,,,0.00,0,Wunderground v.1.15,2013-09-11 23:33:00,
2013-09-11 19:39:00,83.3,73.7,30.05,East,80,6.0,10.0,73,0.00,,,0.00,0,Wunderground v.1.15,2013-09-11 23:39:00,
2013-09-11 19:44:00,83.1,73.5,30.05,ENE,74,6.0,6.0,73,0.00,,,0.00,0,Wunderground v.1.15,2013-09-11 23:44:00,
2013-09-11 19:49:00,82.9,73.8,30.05,East,84,5.0,6.0,74,0.00,,,0.00,0,Wunderground v.1.15,2013-09-11 23:49:00,
2013-09-11 19:54:00,82.7,73.6,30.05,East,81,5.0,8.0,74,0.00,,,0.00,0,Wunderground v.1.15,2013-09-11 23:54:00,
2013-09-11 20:00:00,82.5,73.8,30.05,ENE,64,4.0,4.0,75,0.00,,,0.00,0,Wunderground v.1.15,2013-09-12 00:00:00,
2013-09-11 20:05:00,82.3,74.0,30.05,ENE,76,4.0,14.0,76,0.00,,,0.00,0,Wunderground v.1.15,2013-09-12 00:05:00,
2013-09-11 20:11:00,82.2,73.9,30.05,ENE,78,4.0,4.0,76,0.00,,,0.00,0,Wunderground v.1.15,2013-09-12 00:11:00,
2013-09-11 20:17:00,82.0,74.1,30.05,East,79,3.0,6.0,77,0.00,,,0.00,0,Wunderground v.1.15,2013-09-12 00:17:00,
2013-09-11 20:22:00,81.8,73.9,30.05,East,91,3.0,4.0,77,0.00,,,0.00,0,Wunderground v.1.15,2013-09-12 00:22:00,
2013-09-11 20:27:00,81.7,74.2,30.05,East,86,4.0,7.0,78,0.00,,,0.00,0,Wunderground v.1.15,2013-09-12 00:27:00,
2013-09-11 20:33:00,81.6,74.1,30.05,East,81,4.0,4.0,78,0.00,,,0.00,0,Wunderground v.1.15,2013-09-12 00:33:00,
2013-09-11 20:38:00,81.4,73.9,30.06,East,82,4.0,7.0,78,0.00,,,0.00,0,Wunderground v.1.15,2013-09-12 00:38:00,
2013-09-11 20:44:00,81.3,74.2,30.06,East,84,4.0,7.0,79,0.00,,,0.00,0,Wunderground v.1.15,2013-09-12 00:44:00,
2013-09-11 20:49:00,81.2,74.1,30.06,East,84,4.0,7.0,79,0.00,,,0.00,0,Wunderground v.1.15,2013-09-12 00:49:00,
2013-09-11 20:54:00,81.1,74.3,30.06,East,81,5.0,7.0,80,0.00,,,0.00,0,Wunderground v.1.15,2013-09-12 00:54:00,
2013-09-11 21:00:00,81.0,74.2,30.06,East,79,4.0,4.0,80,0.00,,,0.00,0,Wunderground v.1.15,2013-09-12 01:00:00,
2013-09-11 21:05:00,80.8,74.4,30.06,East,79,4.0,15.0,81,0.00,,,0.00,0,Wunderground v.1.15,2013-09-12 01:05:00,
2013-09-11 21:11:00,80.7,74.3,30.06,East,79,4.0,5.0,81,0.00,,,0.00,0,Wunderground v.1.15,2013-09-12 01:11:00,
2013-09-11 21:16:00,80.6,74.6,30.06,East,79,4.0,6.0,82,0.00,,,0.00,0,Wunderground v.1.15,2013-09-12 01:16:00,
2013-09-11 21:22:00,80.5,74.5,30.06,ENE,76,4.0,8.0,82,0.00,,,0.00,0,Wunderground v.1.15,2013-09-12 01:22:00,
2013-09-11 21:28:00,80.4,74.8,30.06,ENE,75,4.0,8.0,83,0.00,,,0.00,0,Wunderground v.1.15,2013-09-12 01:28:00,
2013-09-11 21:33:00,80.3,74.7,30.06,East,80,4.0,5.0,83,0.00,,,0.00,0,Wunderground v.1.15,2013-09-12 01:33:00,
2013-09-11 21:38:00,80.2,74.6,30.06,East,80,3.0,5.0,83,0.00,,,0.00,0,Wunderground v.1.15,2013-09-12 01:38:00,
2013-09-11 21:44:00,80.1,74.8,30.06,East,79,3.0,4.0,84,0.00,,,0.00,0,Wunderground v.1.15,2013-09-12 01:44:00,
2013-09-11 21:49:00,80.0,74.7,30.06,East,79,2.0,4.0,84,0.00,,,0.00,0,Wunderground v.1.15,2013-09-12 01:49:00,
2013-09-11 21:54:00,79.9,74.6,30.06,East,79,2.0,4.0,84,0.00,,,0.00,0,Wunderground v.1.15,2013-09-12 01:54:00,
2013-09-11 22:00:00,79.9,75.0,30.06,East,79,2.0,4.0,85,0.00,,,0.00,0,Wunderground v.1.15,2013-09-12 02:00:00,
2013-09-11 22:05:00,79.8,74.5,30.07,East,79,2.0,10.0,84,0.00,,,0.00,0,Wunderground v.1.15,2013-09-12 02:05:00,
2013-09-11 22:10:00,79.7,74.8,30.07,East,79,3.0,3.0,85,0.00,,,0.00,0,Wunderground v.1.15,2013-09-12 02:10:00,
2013-09-11 22:15:00,79.7,74.8,30.07,East,79,3.0,3.0,85,0.00,,,0.00,0,Wunderground v.1.15,2013-09-12 02:15:00,
2013-09-11 22:21:00,79.6,74.7,30.07,East,79,2.0,2.0,85,0.00,,,0.00,0,Wunderground v.1.15,2013-09-12 02:21:00,
2013-09-11 22:27:00,79.4,74.5,30.07,East,79,1.0,4.0,85,0.00,,,0.00,0,Wunderground v.1.15,2013-09-12 02:27:00,
2013-09-11 22:32:00,79.4,74.8,30.07,East,79,1.0,2.0,86,0.00,,,0.00,0,Wunderground v.1.15,2013-09-12 02:32:00,
2013-09-11 22:37:00,79.4,75.2,30.07,East,79,2.0,3.0,87,0.00,,,0.00,0,Wunderground v.1.15,2013-09-12 02:37:00,
2013-09-11 22:43:00,79.3,74.7,30.07,East,79,2.0,2.0,86,0.00,,,0.00,0,Wunderground v.1.15,2013-09-12 02:43:00,
2013-09-11 22:48:00,79.1,74.5,30.07,East,79,1.0,2.0,86,0.00,,,0.00,0,Wunderground v.1.15,2013-09-12 02:48:00,
2013-09-11 22:53:00,79.1,74.9,30.07,East,79,2.0,4.0,87,0.00,,,0.00,0,Wunderground v.1.15,2013-09-12 02:53:00,
2013-09-11 22:59:00,79.0,74.8,30.07,East,79,2.0,4.0,87,0.00,,,0.00,0,Wunderground v.1.15,2013-09-12 02:59:00,
2013-09-11 23:04:00,78.9,75.0,30.07,East,79,2.0,8.0,88,0.00,,,0.00,0,Wunderground v.1.15,2013-09-12 03:04:00,
2013-09-11 23:09:00,78.9,75.0,30.06,East,79,1.0,8.0,88,0.00,,,0.00,0,Wunderground v.1.15,2013-09-12 03:09:00,
2013-09-11 23:15:00,78.7,74.5,30.07,East,79,0.0,1.0,87,0.00,,,0.00,0,Wunderground v.1.15,2013-09-12 03:15:00,
2013-09-11 23:20:00,78.5,74.3,30.07,East,79,0.0,2.0,87,0.00,,,0.00,0,Wunderground v.1.15,2013-09-12 03:20:00,
2013-09-11 23:25:00,78.4,74.5,30.07,East,79,1.0,2.0,88,0.00,,,0.00,0,Wunderground v.1.15,2013-09-12 03:25:00,
2013-09-11 23:31:00,78.2,74.4,30.07,East,79,1.0,3.0,88,0.00,,,0.00,0,Wunderground v.1.15,2013-09-12 03:31:00,
2013-09-11 23:36:00,78.1,74.3,30.07,East,79,0.0,3.0,88,0.00,,,0.00,0,Wunderground v.1.15,2013-09-12 03:36:00,
2013-09-11 23:41:00,78.0,74.5,30.07,East,79,0.0,0.0,89,0.00,,,0.00,0,Wunderground v.1.15,2013-09-12 03:41:00,
2013-09-11 23:47:00,77.8,74.3,30.07,East,79,0.0,0.0,89,0.00,,,0.00,0,Wunderground v.1.15,2013-09-12 03:47:00,
2013-09-11 23:52:00,77.7,74.2,30.07,East,79,0.0,0.0,89,0.00,,,0.00,0,Wunderground v.1.15,2013-09-12 03:52:00,
2013-09-11 23:57:00,77.6,74.4,30.07,East,79,0.0,0.0,90,0.00,,,0.00,0,Wunderground v.1.15,2013-09-12 03:57:00,